FW1075 Weather Reports


Display with metric or nautical units.
time (UTC)temp
F
wind
direction
speed
MPH
gust
MPH
rain 1hr
in
rain 24hr
in
rain mn
in
humidity
%
barometer
mb
20260502140125 55 310 2.0 5.0 0.00 0.00 0.00 83 1010.2
20260502130121 55 118 2.0 3.0 0.00 0.00 0.00 84 1010.4
20260502123142 54 63 2.0 4.0 0.00 0.00 0.00 86 1010.2
20260502122142 53 104 2.0 4.0 0.00 0.00 0.00 91 1010.2
20260502121122 52 101 3.0 4.0 0.00 0.00 0.00 92 1010.2
20260502120122 52 103 3.0 5.0 0.00 0.00 0.00 93 1010.4
20260502115122 52 104 2.0 4.0 0.00 0.00 0.00 94 1010.4
20260502114123 52 306 2.0 4.0 0.00 0.00 0.00 96 1010.5
20260502113142 51 306 2.0 4.0 0.00 0.00 0.00 96 1010.4
20260502112121 51 320 2.0 3.0 0.00 0.00 0.00 97 1010.2
20260502111121 51 324 2.0 4.0 0.00 0.00 0.00 98 1009.8
20260502110142 51 60 2.0 5.0 0.00 0.00 0.00 99 1009.8
20260502105121 50 64 2.0 4.0 0.00 0.00 0.00 99 1009.6
20260502104121 50 108 1.0 4.0 0.00 0.00 0.00 99 1009.6
20260502103122 50 115 2.0 3.0 0.00 0.00 0.00 99 1009.8
20260502102121 50 299 1.0 3.0 0.00 0.00 0.00 99 1009.7
20260502101143 51 270 0.0 0.0 0.00 0.00 0.00 98 1009.9
20260502100143 51 232 1.0 2.0 0.00 0.00 0.00 97 1009.9
20260502091121 51 242 2.0 4.0 0.00 0.00 0.00 92 1009.7
20260502090121 52 215 2.0 4.0 0.00 0.00 0.00 91 1009.7
20260502071125 52 236 2.0 6.0 0.00 0.00 0.00 89 1009.8
20260502070121 51 254 2.0 5.0 0.00 0.00 0.00 89 1009.8
20260502065122 51 235 2.0 4.0 0.00 0.00 0.00 89 1009.8
20260502064121 51 204 2.0 4.0 0.00 0.00 0.00 89 1009.9
20260502063124 51 250 2.0 4.0 0.00 0.00 0.00 89 1010.0
20260502062122 51 231 1.0 3.0 0.00 0.00 0.00 89 1010.0
20260502061122 51 196 2.0 4.0 0.00 0.00 0.00 87 1010.2
20260502060124 51 191 1.0 3.0 0.00 0.00 0.00 87 1010.2
20260502055124 51 186 1.0 2.0 0.00 0.00 0.00 86 1010.1
20260502054122 51 196 0.0 2.0 0.00 0.00 0.00 84 1010.1
20260502053122 52 227 1.0 3.0 0.00 0.00 0.00 83 1009.9
20260502052123 52 227 2.0 4.0 0.00 0.00 0.00 82 1010.1
20260502051121 52 246 1.0 4.0 0.00 0.00 0.00 81 1009.9
20260502050121 52 201 1.0 3.0 0.00 0.00 0.00 81 1009.9
20260502045121 53 242 2.0 5.0 0.00 0.00 0.00 81 1009.9
20260502044121 53 234 2.0 4.0 0.00 0.00 0.00 81 1010.0
20260502043122 53 220 3.0 6.0 0.00 0.00 0.00 81 1010.2
20260502042142 53 253 3.0 6.0 0.00 0.00 0.00 83 1010.2
20260502041121 52 247 3.0 6.0 0.00 0.00 0.00 84 1010.2
20260502040123 52 234 2.0 7.0 0.00 0.00 0.00 88 1010.1
20260502035122 52 176 2.0 4.0 0.00 0.00 0.00 91 1010.1
20260502034122 51 215 2.0 3.0 0.00 0.00 0.00 93 1010.0
20260502033123 51 175 1.0 3.0 0.00 0.00 0.00 95 1010.0
20260502032123 51 183 1.0 3.0 0.00 0.00 0.00 96 1010.2
20260502031123 50 181 1.0 3.0 0.00 0.00 0.00 97 1010.4
20260502030122 50 206 1.0 3.0 0.00 0.00 0.00 97 1010.5
20260502025121 50 172 1.0 3.0 0.00 0.00 0.00 98 1010.5
20260502024122 50 188 1.0 3.0 0.00 0.00 0.00 97 1010.5
20260502023142 50 208 2.0 3.0 0.00 0.00 0.00 96 1010.5
20260502022144 50 202 2.0 3.0 0.00 0.00 0.00 95 1010.4
20260502021123 50 182 1.0 2.0 0.00 0.00 0.00 95 1010.5
20260502020122 50 249 2.0 5.0 0.00 0.00 0.00 94 1010.5
20260502015122 51 200 2.0 5.0 0.00 0.00 0.00 93 1010.5
20260502014122 51 200 1.0 3.0 0.00 0.00 0.00 91 1010.2
20260502013123 51 211 2.0 3.0 0.00 0.00 0.00 90 1010.2
20260502012121 51 222 2.0 5.0 0.00 0.00 0.00 88 1010.2
20260502011121 51 225 2.0 4.0 0.00 0.00 0.00 86 1010.0
20260502010142 52 203 2.0 6.0 0.00 0.00 0.00 85 1010.0
20260502005122 52 240 4.0 7.0 0.00 0.00 0.00 84 1010.0
20260502004121 52 223 3.0 5.0 0.00 0.00 0.00 83 1010.1
20260502003122 53 222 3.0 7.0 0.00 0.00 0.00 81 1010.0
20260502002121 53 218 3.0 6.0 0.00 0.00 0.00 81 1009.9
20260502001122 53 191 3.0 6.0 0.00 0.00 0.00 80 1009.7
20260502000122 53 225 3.0 6.0 0.00 0.00 0.00 81 1009.6
20260501235124 53 228 3.0 6.0 0.00 0.00 0.00 81 1009.6
20260501234121 53 225 3.0 8.0 0.00 0.00 0.00 80 1009.6
20260501233142 53 236 3.0 5.0 0.00 0.00 0.00 79 1009.5
20260501232146 54 230 3.0 6.0 0.00 0.00 0.00 79 1009.4
20260501231123 54 223 3.0 7.0 0.00 0.00 0.00 78 1009.2
20260501230122 54 256 3.0 5.0 0.00 0.00 0.00 77 1009.2
20260501225123 55 237 3.0 4.0 0.00 0.00 0.00 75 1009.2
20260501224121 56 265 4.0 9.0 0.00 0.00 0.00 73 1009.2
20260501223122 57 207 4.0 6.0 0.00 0.00 0.00 71 1009.2
20260501222122 57 216 4.0 9.0 0.00 0.00 0.00 68 1009.4
20260501221122 57 254 4.0 6.0 0.00 0.00 0.00 68 1009.5
20260501220123 57 214 4.0 9.0 0.00 0.00 0.00 66 1009.5
20260501215122 57 238 5.0 10.0 0.00 0.00 0.00 66 1009.5
20260501214144 57 197 5.0 7.0 0.00 0.00 0.00 66 1009.4
20260501213122 58 204 5.0 10.0 0.00 0.00 0.00 64 1009.2
20260501212121 60 229 5.0 10.0 0.00 0.00 0.00 63 1009.2
20260501211121 60 265 5.0 8.0 0.00 0.00 0.00 60 1009.2
20260501210121 61 251 5.0 8.0 0.00 0.00 0.00 58 1009.2
20260501205121 62 249 5.0 9.0 0.00 0.00 0.00 57 1009.2
20260501204125 64 233 5.0 10.0 0.00 0.00 0.00 53 1009.1
20260501203145 64 239 4.0 8.0 0.00 0.00 0.00 50 1009.0
20260501202121 65 278 5.0 9.0 0.00 0.00 0.00 49 1009.0
20260501201142 64 249 6.0 10.0 0.00 0.00 0.00 49 1009.0
20260501200121 66 263 5.0 11.0 0.00 0.00 0.00 49 1008.9
20260501195121 67 254 6.0 10.0 0.00 0.00 0.00 46 1008.9
20260501194121 67 258 5.0 11.0 0.00 0.00 0.00 47 1008.8
20260501193145 66 224 5.0 9.0 0.00 0.00 0.00 48 1009.0
20260501192145 67 252 4.0 8.0 0.00 0.00 0.00 43 1009.0
20260501191124 68 258 5.0 8.0 0.00 0.00 0.00 44 1009.2
20260501190121 67 226 5.0 11.0 0.00 0.00 0.00 43 1009.4
20260501185122 67 218 4.0 7.0 0.00 0.00 0.00 45 1009.4
20260501184122 67 231 5.0 7.0 0.00 0.00 0.00 44 1009.5
20260501183121 67 274 4.0 8.0 0.00 0.00 0.00 45 1009.6
20260501182143 67 230 5.0 9.0 0.00 0.00 0.00 43 1009.7
20260501181124 67 256 6.0 10.0 0.00 0.00 0.00 43 1009.5
20260501180124 66 246 4.0 5.0 0.00 0.00 0.00 44 1009.7
20260501175122 66 289 5.0 10.0 0.00 0.00 0.00 40 1009.7
20260501174123 68 325 4.0 8.0 0.00 0.00 0.00 37 1009.8
20260501173122 65 272 5.0 8.0 0.00 0.00 0.00 39 1009.9
20260501172141 65 282 4.0 6.0 0.00 0.00 0.00 40 1010.1
20260501171120 66 331 5.0 8.0 0.00 0.00 0.00 40 1010.1
20260501170141 66 323 4.0 8.0 0.00 0.00 0.00 40 1010.2
20260501165120 65 329 5.0 8.0 0.00 0.00 0.00 40 1010.2
20260501164123 64 284 4.0 8.0 0.00 0.00 0.00 41 1010.4
20260501163120 64 280 5.0 8.0 0.00 0.00 0.00 40 1010.5
20260501162121 65 318 3.0 7.0 0.00 0.00 0.00 41 1010.6
20260501161123 63 305 4.0 8.0 0.00 0.00 0.00 42 1010.8
20260501160120 62 295 4.0 10.0 0.00 0.00 0.00 42 1011.0
20260501155120 62 293 4.0 7.0 0.00 0.00 0.00 43 1011.0
20260501154141 62 306 3.0 8.0 0.00 0.00 0.00 45 1011.2
20260501153120 61 331 4.0 8.0 0.00 0.00 0.00 46 1011.2
20260501152121 61 336 5.0 10.0 0.00 0.00 0.00 45 1011.2
20260501151121 59 310 5.0 7.0 0.00 0.00 0.00 46 1011.2
20260501150121 61 352 4.0 7.0 0.00 0.00 0.00 45 1011.1
20260501145142 59 22 4.0 7.0 0.00 0.00 0.00 48 1011.1
20260501144142 58 309 5.0 12.0 0.00 0.00 0.00 50 1011.0
20260501143121 58 298 4.0 8.0 0.00 0.00 0.00 50 1011.2